Regional Weather Roundup
Issued by NWS Cleveland, OH

Home | Current Version | Previous Version | Graphics & Text | Print | Product List | Glossary On
Versions: 1 2 3 4 5 6 7 8 9 10 11 12 13 14 15 16 17 18 19 20 21 22 23 24 25 26 27 28 29 30 31 32 33 34 35 36 37 38 39 40 41 42 43 44 45 46 47 48 49 50
000
ASUS41 KCLE 212202
RWRCLE
OHIO REGIONAL WEATHER ROUNDUP
NATIONAL WEATHER SERVICE CLEVELAND, OH
600 PM EDT SUN SEP 21 2014

NOTE: "FAIR" INDICATES FEW OR NO CLOUDS BELOW 12,000 FEET WITH NO
SIGNIFICANT WEATHER AND/OR OBSTRUCTIONS TO VISIBILITY.

OHZ001>008-015>018-024>027-034-035-043-044-212300-
   NORTHWEST OHIO

CITY           SKY/WX    TMP DP  RH WIND       PRES   REMARKS
DEFIANCE       PTSUNNY  N/A N/A N/A W10G26    29.86R
FINDLAY        MOSUNNY   65  51  60 W21G31    29.83R
TOLEDO EXPRESS LGT RAIN  57  54  88 W16G28    29.82R FOG
TOLEDO EXEC    CLOUDY    65  49  56 W22G32    29.80R
LIMA           PTSUNNY   62  52  69 W14G28    29.87R
$$

OHZ009>014-019>023-028>033-038-089-212300-
   NORTHEAST OHIO

CITY           SKY/WX    TMP DP  RH WIND       PRES   REMARKS
CLE-HOPKINS    PTSUNNY   65  49  56 W22G37    29.76R
CLE-LAKEFRONT  PTSUNNY   66  54  65 W28G39    29.72R
CUY CO. ARPT   PTSUNNY   68  55  64 W22G37    29.73R
LORAIN-ELYRIA  CLOUDY    67  50  54 W16G29    29.78R
ASHTABULA      PTSUNNY   64  52  64 W16G35    29.72R
AKRON-CANTON   PTSUNNY   68  46  45 W20G35    29.75R
WOOSTER        PTSUNNY   66  48  52 NW21G29   29.79R
MANSFIELD      PTSUNNY   63  48  58 W16G29    29.81R
YOUNGSTOWN     PTSUNNY   67  52  58 W13       29.72R
$$

OHZ042-051>053-060>062-070>072-077>081-212300-
  SOUTHWEST OHIO

CITY           SKY/WX    TMP DP  RH WIND       PRES   REMARKS
CINC-COVINGTON MOSUNNY   73  47  39 NW18G26   29.89R
CINC-LUNKEN    MOSUNNY   74  48  39 NW13G23   29.88R
HAMILTON       MOSUNNY   72  49  44 NW18G26   29.89R
DAYTON         PTSUNNY   68  48  48 NW21G29   29.90R
WRIGHT-PAT AFB SUNNY     69  47  45 W18G29    29.88R
DAYTON GENERAL MOSUNNY   70  48  45 NW21G30   29.88R
WILMINGTON     MOSUNNY   71  46  40 NW16G30   29.86R
$$

OHZ036-037-039>041-045>050-054>059-063>069-073>076-082>088-212300-
  CENTRAL AND SOUTHEAST OHIO

CITY           SKY/WX    TMP DP  RH WIND       PRES   REMARKS
COLUMBUS       MOSUNNY   73  46  38 NW25G32   29.82R
OSU AIRPORT    SUNNY     69  46  43 W22G39    29.83R
BOLTON FIELD   MOSUNNY   70  48  46 NW21G29   29.84R
RICKENBACK AFB PTSUNNY   71  46  41 W24G33    29.82R
NEWARK         MOSUNNY   70  46  42 W18G30    29.80R
MARION         PTSUNNY   65  48  54 W16G28    29.84R
LANCASTER      MOSUNNY   72  47  40 NW14G31   29.82R
ZANESVILLE     MOSUNNY   73  43  33 NW17G35   29.77R
NEW PHILLY     MOSUNNY   71  47  42 W16G30    29.77R
$$



USA.gov is the U.S. government's official web portal to all federal, state and local government web resources and services.